,,Stat5,,Stat1,,Stat2,,Stat3,,Stat4,,Wind1,,Wind1,
time,status,PA1M_AVG,status,PR1M_SUM,status,RH1M_AVG,status,SR1M_AVG,status,TA1M_AVG,status,W1dAve1m,status,W1sAve1m,
2003-03-10, 00:00:00,VALID,918.945,VALID,0,VALID,91.7221,VALID,-0.0339617,VALID,19.6858,VALID,71,VALID,0.502956,
2003-03-10, 00:01:01,VALID,918.953,VALID,0,VALID,91.9027,VALID,-0.0169808,VALID,19.6503,VALID,35,VALID,0.799561,
2003-03-10, 00:02:00,VALID,918.96,VALID,0,VALID,91.8518,VALID,-0.0679233,VALID,19.5926,VALID,45,VALID,0.765408,
2003-03-10, 00:03:00,VALID,918.97,VALID,0,VALID,91.8124,VALID,-0.0169808,VALID,19.5369,VALID,48,VALID,0.615668,
2003-03-10, 00:04:00,VALID,918.969,VALID,0,VALID,92.115,VALID,-0.0509425,VALID,19.4855,VALID,61,VALID,0.919508,
2003-03-10, 00:05:00,VALID,918.975,VALID,0,VALID,92.3566,VALID,-0.0339617,VALID,19.4572,VALID,84,VALID,1.24957,
2003-03-10, 00:06:00,VALID,918.973,VALID,0,VALID,91.2809,VALID,-0.0679233,VALID,19.3727,VALID,118,VALID,1.35312,
2003-03-10, 00:07:00,VALID,918.958,VALID,0,VALID,90.7442,VALID,-0.0339617,VALID,19.3344,VALID,122,VALID,1.28788,
2003-03-10, 00:08:00,VALID,918.968,VALID,0,VALID,91.2491,VALID,-0.0339617,VALID,19.3607,VALID,126,VALID,0.960045,
2003-03-10, 00:09:00,VALID,918.969,VALID,0,VALID,91.5263,VALID,-0.0849042,VALID,19.36,VALID,133,VALID,0.774107,
2003-03-10, 00:10:00,VALID,918.969,VALID,0,VALID,91.5148,VALID,-0.0169808,VALID,19.3702,VALID,114,VALID,1.27983,
2003-03-10, 00:11:00,VALID,918.978,VALID,0,VALID,91.5479,VALID,-0.0169808,VALID,19.3339,VALID,98,VALID,1.48438,
2003-03-10, 00:12:00,VALID,918.998,VALID,0,VALID,91.9383,VALID,-0.0679233,VALID,19.318,VALID,82,VALID,1.46255,
2003-03-10, 00:13:01,VALID,919.011,VALID,0,VALID,92.6707,VALID,-0.0169808,VALID,19.3217,VALID,66,VALID,1.5509,
2003-03-10, 00:14:00,VALID,918.999,VALID,0,VALID,92.2562,VALID,-0.0679233,VALID,19.286,VALID,65,VALID,1.52062,
2003-03-10, 00:15:01,VALID,919,VALID,0,VALID,91.9574,VALID,-0.0509425,VALID,19.2472,VALID,69,VALID,1.23906,
2003-03-10, 00:16:00,VALID,918.978,VALID,0,VALID,91.6331,VALID,-0.0679233,VALID,19.2509,VALID,74,VALID,1.20786,
2003-03-10, 00:17:00,VALID,918.959,VALID,0,VALID,91.5593,VALID,-0.0509425,VALID,19.2246,VALID,75,VALID,1.12299,
2003-03-10, 00:18:00,VALID,918.938,VALID,0,VALID,91.5326,VALID,-0.0509425,VALID,19.241,VALID,70,VALID,0.992188,
2003-03-10, 00:19:00,VALID,918.902,VALID,0,VALID,92.0006,VALID,0,VALID,19.2504,VALID,59,VALID,0.731771,
2003-03-10, 00:20:00,VALID,918.875,VALID,0,VALID,92.2587,VALID,-0.0509425,VALID,19.27,VALID,54,VALID,0.481702,
2003-03-10, 00:21:00,VALID,918.859,VALID,0,VALID,92.2206,VALID,-0.0849042,VALID,19.2671,VALID,54,VALID,0.524586,
2003-03-10, 00:22:00,VALID,918.825,VALID,0,VALID,92.0883,VALID,-0.0509425,VALID,19.2633,VALID,54,VALID,0.337595,
2003-03-10, 00:23:00,VALID,918.784,VALID,0,VALID,91.8912,VALID,-0.0169808,VALID,19.2755,VALID,54,VALID,0.093316,
2003-03-10, 00:24:00,VALID,918.741,VALID,0,VALID,91.6992,VALID,-0.0339617,VALID,19.3183,VALID,54,VALID,0.00178571,
2003-03-10, 00:25:01,VALID,918.701,VALID,0,VALID,91.3724,VALID,-0.0339617,VALID,19.3503,VALID,54,VALID,0,
2003-03-10, 00:26:00,VALID,918.666,VALID,0,VALID,91.6166,VALID,-0.0339617,VALID,19.3759,VALID,54,VALID,0,
2003-03-10, 00:27:00,VALID,918.639,VALID,0,VALID,91.4271,VALID,-0.0509425,VALID,19.4087,VALID,54,VALID,0,
2003-03-10, 00:28:00,VALID,918.63,VALID,0,VALID,91.759,VALID,-0.0509425,VALID,19.4736,VALID,54,VALID,0,
2003-03-10, 00:29:00,VALID,918.646,VALID,0,VALID,91.5047,VALID,-0.0849042,VALID,19.4897,VALID,54,VALID,0,
2003-03-10, 00:30:00,VALID,918.664,VALID,0,VALID,91.4741,VALID,-0.0849042,VALID,19.5357,VALID,54,VALID,0,
2003-03-10, 00:31:00,VALID,918.691,VALID,0,VALID,91.9256,VALID,-0.0509425,VALID,19.5543,VALID,53,VALID,0.146307,
2003-03-10, 00:32:00,VALID,918.711,VALID,0,VALID,92.0832,VALID,-0.0509425,VALID,19.5832,VALID,49,VALID,0.387153,
2003-03-10, 00:33:00,VALID,918.722,VALID,0,VALID,91.6674,VALID,-0.101885,VALID,19.5603,VALID,49,VALID,0.186161,
2003-03-10, 00:34:00,VALID,918.703,VALID,0,VALID,91.3127,VALID,-0.101885,VALID,19.531,VALID,49,VALID,0.0461648,
2003-03-10, 00:35:00,VALID,918.686,VALID,0,VALID,90.8867,VALID,-0.0679233,VALID,19.5282,VALID,125,VALID,0.3625,
2003-03-10, 00:36:00,VALID,918.656,VALID,0,VALID,90.2114,VALID,-0.0509425,VALID,19.5017,VALID,160,VALID,0.234821,
2003-03-10, 00:37:00,VALID,918.638,VALID,0,VALID,90.3361,VALID,0,VALID,19.527,VALID,160,VALID,0.293087,
2003-03-10, 00:38:00,VALID,918.622,VALID,0,VALID,90.4098,VALID,0,VALID,19.523,VALID,160,VALID,0.222862,
2003-03-10, 00:39:00,VALID,918.603,VALID,0,VALID,89.3506,VALID,0.0339617,VALID,19.5079,VALID,139,VALID,0.426011,
2003-03-10, 00:40:01,VALID,918.589,VALID,0,VALID,89.8363,VALID,0,VALID,19.488,VALID,119,VALID,0.608665,
2003-03-10, 00:41:00,VALID,918.588,VALID,0,VALID,89.493,VALID,0,VALID,19.4592,VALID,115,VALID,0.765191,
2003-03-10, 00:42:00,VALID,918.578,VALID,0,VALID,88.4566,VALID,0.0169808,VALID,19.4075,VALID,109,VALID,1.03817,
2003-03-10, 00:43:01,VALID,918.575,VALID,0,VALID,88.8826,VALID,0,VALID,19.4167,VALID,98,VALID,1.09825,
2003-03-10, 00:44:00,VALID,918.581,VALID,0,VALID,89.0772,VALID,0.0339617,VALID,19.4202,VALID,106,VALID,0.836384,
2003-03-10, 00:45:00,VALID,918.571,VALID,0,VALID,89.9457,VALID,0,VALID,19.4497,VALID,128,VALID,0.441071,
2003-03-10, 00:46:00,VALID,918.576,VALID,0,VALID,90.6959,VALID,0.0169808,VALID,19.4721,VALID,138,VALID,0.827652,
2003-03-10, 00:47:00,VALID,918.563,VALID,0,VALID,90.804,VALID,0,VALID,19.4882,VALID,140,VALID,0.877262,
2003-03-10, 00:48:00,VALID,918.572,VALID,0,VALID,91.2008,VALID,-0.0169808,VALID,19.4915,VALID,148,VALID,0.936121,
2003-03-10, 00:49:00,VALID,918.578,VALID,0,VALID,91.3508,VALID,0,VALID,19.4947,VALID,149,VALID,1.00308,
2003-03-10, 00:50:00,VALID,918.591,VALID,0,VALID,91.5644,VALID,0.0169808,VALID,19.495,VALID,150,VALID,1.03299,
2003-03-10, 00:51:01,VALID,918.6,VALID,0,VALID,91.6064,VALID,-0.0169808,VALID,19.4882,VALID,149,VALID,0.826339,
2003-03-10, 00:52:00,VALID,918.629,VALID,0,VALID,91.4424,VALID,0,VALID,19.4982,VALID,153,VALID,1.31416,
2003-03-10, 00:53:01,VALID,918.625,VALID,0,VALID,91.3864,VALID,-0.0169808,VALID,19.492,VALID,152,VALID,1.23438,
2003-03-10, 00:54:00,VALID,918.613,VALID,0,VALID,91.4602,VALID,0,VALID,19.4887,VALID,151,VALID,1.23906,
2003-03-10, 00:55:00,VALID,918.62,VALID,0,VALID,91.5098,VALID,0,VALID,19.4855,VALID,148,VALID,1.04948,
2003-03-10, 00:56:00,VALID,918.607,VALID,0,VALID,91.8289,VALID,0,VALID,19.4925,VALID,148,VALID,0.733141,
2003-03-10, 00:57:00,VALID,918.58,VALID,0,VALID,91.8658,VALID,0,VALID,19.4793,VALID,149,VALID,0.881893,
2003-03-10, 00:58:01,VALID,918.553,VALID,0,VALID,91.7564,VALID,-0.0169808,VALID,19.479,VALID,146,VALID,0.897491,
2003-03-10, 00:59:00,VALID,918.533,VALID,0,VALID,91.8099,VALID,-0.0169808,VALID,19.4691,VALID,139,VALID,0.69184,
2003-03-10, 01:00:01,VALID,918.486,VALID,0,VALID,91.7882,VALID,0.0169808,VALID,19.4525,VALID,141,VALID,0.73125,
2003-03-10, 01:01:00,VALID,918.452,VALID,0,VALID,91.5911,VALID,0.0169808,VALID,19.443,VALID,146,VALID,0.893466,
2003-03-10, 01:02:01,VALID,918.425,VALID,0,VALID,91.2427,VALID,0,VALID,19.4522,VALID,146,VALID,0.769643,
2003-03-10, 01:03:01,VALID,918.404,VALID,0,VALID,91.1232,VALID,0.0169808,VALID,19.4818,VALID,147,VALID,0.595759,
2003-03-10, 01:04:01,VALID,918.381,VALID,0,VALID,91.0889,VALID,0,VALID,19.5367,VALID,152,VALID,0.461648,
2003-03-10, 01:05:01,VALID,918.373,VALID,0,VALID,90.9223,VALID,0,VALID,19.5854,VALID,153,VALID,0.509868,
2003-03-10, 01:06:00,VALID,918.366,VALID,0,VALID,90.86,VALID,0,VALID,19.6112,VALID,146,VALID,0.944164,
2003-03-10, 01:07:01,VALID,918.349,VALID,0,VALID,90.5166,VALID,0,VALID,19.647,VALID,149,VALID,1.26634,
2003-03-10, 01:08:01,VALID,918.341,VALID,0,VALID,90.3806,VALID,0,VALID,19.6729,VALID,151,VALID,1.19553,
2003-03-10, 01:09:01,VALID,918.323,VALID,0,VALID,90.1555,VALID,-0.0169808,VALID,19.6729,VALID,151,VALID,1.00246,
2003-03-10, 01:10:01,VALID,918.316,VALID,0,VALID,89.6329,VALID,-0.0169808,VALID,19.696,VALID,150,VALID,0.866241,
2003-03-10, 01:11:01,VALID,918.284,VALID,0,VALID,88.6779,VALID,0.0169808,VALID,19.6759,VALID,148,VALID,0.95067,
2003-03-10, 01:12:01,VALID,918.274,VALID,0,VALID,88.1731,VALID,0,VALID,19.6754,VALID,145,VALID,0.717857,
2003-03-10, 01:13:01,VALID,918.257,VALID,0,VALID,88.0179,VALID,-0.0169808,VALID,19.692,VALID,125,VALID,0.357481,
2003-03-10, 01:14:01,VALID,918.259,VALID,0,VALID,88.594,VALID,-0.0169808,VALID,19.7243,VALID,122,VALID,0.297492,
2003-03-10, 01:15:01,VALID,918.248,VALID,0,VALID,88.9958,VALID,0.0169808,VALID,19.7536,VALID,60,VALID,0.472886,
2003-03-10, 01:16:01,VALID,918.243,VALID,0,VALID,89.4955,VALID,0,VALID,19.7467,VALID,51,VALID,0.660748,
2003-03-10, 01:17:01,VALID,918.244,VALID,0,VALID,90.3768,VALID,0,VALID,19.7208,VALID,35,VALID,0.777995,
2003-03-10, 01:18:01,VALID,918.244,VALID,0,VALID,90.7366,VALID,0,VALID,19.7047,VALID,25,VALID,0.682813,
2003-03-10, 01:19:01,VALID,918.242,VALID,0,VALID,91.2058,VALID,0,VALID,19.6659,VALID,25,VALID,0.441761,
2003-03-10, 01:20:01,VALID,918.215,VALID,0,VALID,91.0571,VALID,0.0169808,VALID,19.6336,VALID,25,VALID,0.266071,
2003-03-10, 01:21:01,VALID,918.193,VALID,0,VALID,89.8185,VALID,0,VALID,19.5946,VALID,25,VALID,0.171205,
2003-03-10, 01:22:01,VALID,918.173,VALID,0,VALID,89.1598,VALID,0.0339617,VALID,19.5524,VALID,25,VALID,0.0182292,
2003-03-10, 01:23:01,VALID,918.164,VALID,0,VALID,89.1128,VALID,0.0339617,VALID,19.5787,VALID,25,VALID,0,
2003-03-10, 01:24:00,VALID,918.146,VALID,0,VALID,89.5299,VALID,0.0169808,VALID,19.5946,VALID,25,VALID,0.0946691,
2003-03-10, 01:25:00,VALID,918.158,VALID,0,VALID,89.7308,VALID,0.0169808,VALID,19.6368,VALID,25,VALID,0.161932,
2003-03-10, 01:26:00,VALID,918.149,VALID,0,VALID,89.8274,VALID,0.0339617,VALID,19.6493,VALID,25,VALID,0.100477,
2003-03-10, 01:27:00,VALID,918.155,VALID,0,VALID,90.448,VALID,0.0169808,VALID,19.6687,VALID,25,VALID,0.199554,
2003-03-10, 01:28:00,VALID,918.16,VALID,0,VALID,90.9096,VALID,0,VALID,19.7017,VALID,26,VALID,0.43679,
2003-03-10, 01:29:00,VALID,918.157,VALID,0,VALID,90.2699,VALID,0.0169808,VALID,19.6687,VALID,27,VALID,0.46942,
2003-03-10, 01:30:00,VALID,918.139,VALID,0,VALID,89.8821,VALID,0,VALID,19.6426,VALID,47,VALID,0.632366,
2003-03-10, 01:31:00,VALID,918.127,VALID,0,VALID,90.3221,VALID,0,VALID,19.6431,VALID,48,VALID,0.774148,
2003-03-10, 01:32:00,VALID,918.106,VALID,0,VALID,90.8078,VALID,0,VALID,19.6341,VALID,48,VALID,0.864309,
2003-03-10, 01:33:00,VALID,918.098,VALID,0,VALID,90.8358,VALID,0,VALID,19.6045,VALID,47,VALID,0.668199,
2003-03-10, 01:34:00,VALID,918.079,VALID,0,VALID,90.172,VALID,0,VALID,19.5819,VALID,58,VALID,0.809659,
2003-03-10, 01:35:00,VALID,918.059,VALID,0,VALID,89.6481,VALID,0,VALID,19.5693,VALID,71,VALID,1.00391,
2003-03-10, 01:36:00,VALID,918.031,VALID,0,VALID,89.2412,VALID,0,VALID,19.5819,VALID,77,VALID,1.18996,
2003-03-10, 01:37:00,VALID,918.022,VALID,0,VALID,89.9978,VALID,0,VALID,19.6376,VALID,56,VALID,0.820313,
2003-03-10, 01:38:00,VALID,918.011,VALID,0,VALID,91.1321,VALID,0,VALID,19.6406,VALID,30,VALID,0.733259,
2003-03-10, 01:39:00,VALID,917.99,VALID,0,VALID,91.4652,VALID,-0.0169808,VALID,19.6048,VALID,21,VALID,0.57433,
2003-03-10, 01:40:00,VALID,917.989,VALID,0,VALID,91.5161,VALID,-0.0339617,VALID,19.5735,VALID,20,VALID,0.43821,
2003-03-10, 01:41:00,VALID,917.982,VALID,0,VALID,91.1804,VALID,0.0169808,VALID,19.5372,VALID,20,VALID,0.287829,
2003-03-10, 01:42:00,VALID,917.99,VALID,0,VALID,90.3361,VALID,-0.0169808,VALID,19.5086,VALID,20,VALID,0.318474,
2003-03-10, 01:43:00,VALID,917.994,VALID,0,VALID,90.3589,VALID,-0.0339617,VALID,19.5017,VALID,20,VALID,0.170691,
2003-03-10, 01:44:00,VALID,917.996,VALID,0,VALID,90.055,VALID,0,VALID,19.5213,VALID,20,VALID,0.0451389,
2003-03-10, 01:45:00,VALID,917.992,VALID,0,VALID,90.0321,VALID,0,VALID,19.5434,VALID,20,VALID,0.248437,
2003-03-10, 01:46:00,VALID,917.987,VALID,0,VALID,90.7417,VALID,0,VALID,19.5859,VALID,20,VALID,0.27178,
2003-03-10, 01:47:00,VALID,917.977,VALID,0,VALID,89.9355,VALID,-0.0169808,VALID,19.5697,VALID,27,VALID,0.354018,
2003-03-10, 01:48:00,VALID,917.982,VALID,0,VALID,88.7288,VALID,0,VALID,19.5106,VALID,97,VALID,0.50692,
2003-03-10, 01:49:00,VALID,917.993,VALID,0,VALID,88.9398,VALID,-0.0169808,VALID,19.5176,VALID,104,VALID,0.529119,
2003-03-10, 01:50:00,VALID,917.998,VALID,0,VALID,90.6908,VALID,-0.0169808,VALID,19.5628,VALID,96,VALID,0.458882,
2003-03-10, 01:51:00,VALID,918.01,VALID,0,VALID,91.0901,VALID,0,VALID,19.576,VALID,81,VALID,0.773897,
2003-03-10, 01:52:00,VALID,918.019,VALID,0,VALID,90.7887,VALID,-0.0169808,VALID,19.521,VALID,78,VALID,0.942472,
2003-03-10, 01:53:00,VALID,918.027,VALID,0,VALID,91.0965,VALID,-0.0169808,VALID,19.4825,VALID,77,VALID,0.847005,
2003-03-10, 01:54:00,VALID,918.041,VALID,0,VALID,91.5415,VALID,0,VALID,19.485,VALID,67,VALID,0.765625,
2003-03-10, 01:55:00,VALID,918.057,VALID,0,VALID,90.8879,VALID,0,VALID,19.4659,VALID,80,VALID,0.764678,
2003-03-10, 01:56:00,VALID,918.073,VALID,0,VALID,91.422,VALID,0,VALID,19.4602,VALID,79,VALID,0.523438,
2003-03-10, 01:57:00,VALID,918.082,VALID,0,VALID,92.199,VALID,0,VALID,19.4761,VALID,77,VALID,0.416741,
2003-03-10, 01:58:00,VALID,918.108,VALID,0,VALID,91.9752,VALID,0,VALID,19.4723,VALID,77,VALID,0.561553,
2003-03-10, 01:59:00,VALID,918.123,VALID,0,VALID,89.9088,VALID,0,VALID,19.4115,VALID,88,VALID,0.935855,
2003-03-10, 02:00:00,VALID,918.127,VALID,0,VALID,88.8559,VALID,0,VALID,19.366,VALID,102,VALID,0.838925,
2003-03-10, 02:01:00,VALID,918.137,VALID,0,VALID,87.9556,VALID,0,VALID,19.3727,VALID,99,VALID,0.869081,
2003-03-10, 02:02:00,VALID,918.151,VALID,0,VALID,87.241,VALID,0.0169808,VALID,19.3849,VALID,96,VALID,0.847005,
2003-03-10, 02:03:00,VALID,918.17,VALID,0,VALID,87.4228,VALID,0,VALID,19.4269,VALID,96,VALID,0.555804,
2003-03-10, 02:04:00,VALID,918.164,VALID,0,VALID,87.0388,VALID,0,VALID,19.4659,VALID,95,VALID,0.616004,
2003-03-10, 02:05:00,VALID,918.17,VALID,0,VALID,86.4882,VALID,0.0169808,VALID,19.4818,VALID,97,VALID,0.602009,
2003-03-10, 02:06:00,VALID,918.162,VALID,0,VALID,86.548,VALID,0.0169808,VALID,19.5007,VALID,107,VALID,0.491518,
2003-03-10, 02:07:00,VALID,918.151,VALID,0,VALID,86.7349,VALID,-0.0339617,VALID,19.5268,VALID,107,VALID,0.521544,
2003-03-10, 02:08:00,VALID,918.156,VALID,0,VALID,86.67,VALID,0,VALID,19.5469,VALID,107,VALID,0.502673,
2003-03-10, 02:09:00,VALID,918.143,VALID,0,VALID,86.89,VALID,0,VALID,19.5434,VALID,107,VALID,0.592142,
2003-03-10, 02:10:00,VALID,918.144,VALID,0,VALID,87.6809,VALID,0,VALID,19.566,VALID,106,VALID,0.530303,
2003-03-10, 02:11:00,VALID,918.153,VALID,0,VALID,89.2387,VALID,0,VALID,19.5854,VALID,89,VALID,0.537977,
2003-03-10, 02:12:00,VALID,918.151,VALID,0,VALID,89.6405,VALID,-0.0169808,VALID,19.566,VALID,80,VALID,0.701116,
2003-03-10, 02:13:00,VALID,918.144,VALID,0,VALID,89.657,VALID,0.0169808,VALID,19.5173,VALID,76,VALID,0.903883,
2003-03-10, 02:14:00,VALID,918.143,VALID,0,VALID,89.685,VALID,0,VALID,19.488,VALID,75,VALID,0.968527,
2003-03-10, 02:15:00,VALID,918.129,VALID,0,VALID,89.8656,VALID,0,VALID,19.4497,VALID,76,VALID,0.913616,
2003-03-10, 02:16:00,VALID,918.119,VALID,0,VALID,89.3442,VALID,0,VALID,19.4112,VALID,78,VALID,0.969934,
2003-03-10, 02:17:00,VALID,918.107,VALID,0,VALID,89.3073,VALID,0,VALID,19.3888,VALID,82,VALID,0.759663,
2003-03-10, 02:18:00,VALID,918.094,VALID,0,VALID,89.6112,VALID,-0.0169808,VALID,19.3881,VALID,82,VALID,0.602711,
2003-03-10, 02:19:00,VALID,918.086,VALID,0,VALID,89.109,VALID,-0.0169808,VALID,19.3727,VALID,90,VALID,0.788116,
2003-03-10, 02:20:00,VALID,918.065,VALID,0,VALID,88.4261,VALID,0,VALID,19.3565,VALID,95,VALID,0.75651,
2003-03-10, 02:21:00,VALID,918.06,VALID,0,VALID,87.6555,VALID,-0.0339617,VALID,19.3523,VALID,97,VALID,0.472768,
2003-03-10, 02:22:00,VALID,918.047,VALID,0,VALID,88.5609,VALID,-0.0169808,VALID,19.3854,VALID,119,VALID,0.380445,
2003-03-10, 02:23:00,VALID,918.035,VALID,0,VALID,89.7231,VALID,-0.0169808,VALID,19.4368,VALID,128,VALID,0.564062,
2003-03-10, 02:24:00,VALID,918.032,VALID,0,VALID,89.6392,VALID,0.0169808,VALID,19.4532,VALID,130,VALID,0.606027,
2003-03-10, 02:25:00,VALID,918.019,VALID,0,VALID,89.6443,VALID,0,VALID,19.4564,VALID,142,VALID,0.718277,
2003-03-10, 02:26:00,VALID,918.046,VALID,0,VALID,89.8694,VALID,0,VALID,19.4559,VALID,126,VALID,0.870683,
2003-03-10, 02:27:00,VALID,918.044,VALID,0,VALID,89.8414,VALID,0,VALID,19.4756,VALID,119,VALID,0.965303,
2003-03-10, 02:28:00,VALID,918.029,VALID,0,VALID,88.7936,VALID,-0.0169808,VALID,19.4694,VALID,122,VALID,1.00166,
2003-03-10, 02:29:00,VALID,918.008,VALID,0,VALID,88.9246,VALID,0,VALID,19.5089,VALID,122,VALID,0.787543,
2003-03-10, 02:30:00,VALID,918.007,VALID,0,VALID,89.0352,VALID,0,VALID,19.5111,VALID,128,VALID,0.620759,
2003-03-10, 02:31:00,VALID,917.977,VALID,0,VALID,89.4027,VALID,0,VALID,19.521,VALID,134,VALID,1.02983,
2003-03-10, 02:32:00,VALID,917.962,VALID,0,VALID,89.6405,VALID,0,VALID,19.4887,VALID,123,VALID,0.735491,
2003-03-10, 02:33:00,VALID,917.919,VALID,0,VALID,89.2234,VALID,0,VALID,19.4497,VALID,122,VALID,0.890848,
2003-03-10, 02:34:00,VALID,917.91,VALID,0,VALID,89.6532,VALID,0,VALID,19.4209,VALID,130,VALID,0.75071,
2003-03-10, 02:35:00,VALID,917.87,VALID,0,VALID,89.6799,VALID,-0.0169808,VALID,19.3946,VALID,134,VALID,0.902961,
2003-03-10, 02:36:00,VALID,917.851,VALID,0,VALID,89.1446,VALID,-0.0339617,VALID,19.3824,VALID,130,VALID,0.903722,
2003-03-10, 02:37:00,VALID,917.844,VALID,0,VALID,89.0161,VALID,-0.101885,VALID,19.3868,VALID,123,VALID,1.07363,
2003-03-10, 02:38:00,VALID,917.824,VALID,0,VALID,88.4846,VALID,-0.0849042,VALID,19.3933,VALID,128,VALID,0.693142,
2003-03-10, 02:39:00,VALID,917.829,VALID,0,VALID,88.4274,VALID,-0.101885,VALID,19.4256,VALID,123,VALID,0.714063,
2003-03-10, 02:40:00,VALID,917.834,VALID,0,VALID,88.4655,VALID,-0.0849042,VALID,19.4512,VALID,121,VALID,0.648201,
2003-03-10, 02:41:00,VALID,917.832,VALID,0,VALID,88.3257,VALID,-0.101885,VALID,19.4837,VALID,123,VALID,0.650893,
2003-03-10, 02:42:00,VALID,917.842,VALID,0,VALID,88.3333,VALID,-0.101885,VALID,19.4999,VALID,122,VALID,0.525,
2003-03-10, 02:43:00,VALID,917.839,VALID,0,VALID,87.784,VALID,-0.101885,VALID,19.5165,VALID,127,VALID,0.642756,
2003-03-10, 02:44:00,VALID,917.87,VALID,0,VALID,88.2608,VALID,-0.101885,VALID,19.5295,VALID,126,VALID,0.650905,
2003-03-10, 02:45:00,VALID,917.887,VALID,0,VALID,88.3638,VALID,-0.101885,VALID,19.5098,VALID,140,VALID,0.692785,
2003-03-10, 02:46:00,VALID,917.895,VALID,0,VALID,87.4775,VALID,-0.101885,VALID,19.5001,VALID,146,VALID,1.04096,
2003-03-10, 02:47:00,VALID,917.889,VALID,0,VALID,88.0256,VALID,-0.101885,VALID,19.5098,VALID,146,VALID,1.09527,
2003-03-10, 02:48:00,VALID,917.901,VALID,0,VALID,88.6741,VALID,-0.101885,VALID,19.5093,VALID,134,VALID,0.646875,
2003-03-10, 02:49:00,VALID,917.92,VALID,0,VALID,89.0187,VALID,-0.101885,VALID,19.5034,VALID,123,VALID,0.733665,
2003-03-10, 02:50:00,VALID,917.921,VALID,0,VALID,89.1624,VALID,-0.101885,VALID,19.4676,VALID,136,VALID,1.10893,
2003-03-10, 02:51:00,VALID,917.917,VALID,0,VALID,89.3709,VALID,-0.0849042,VALID,19.435,VALID,126,VALID,1.08728,
2003-03-10, 02:52:00,VALID,917.915,VALID,0,VALID,89.4192,VALID,0,VALID,19.4184,VALID,120,VALID,0.834754,
2003-03-10, 02:53:00,VALID,917.901,VALID,0,VALID,89.3366,VALID,0,VALID,19.4149,VALID,129,VALID,0.919819,
2003-03-10, 02:54:00,VALID,917.896,VALID,0,VALID,89.4345,VALID,0,VALID,19.4241,VALID,122,VALID,0.558594,
2003-03-10, 02:55:00,VALID,917.886,VALID,0,VALID,89.4345,VALID,0,VALID,19.4465,VALID,140,VALID,0.830019,
2003-03-10, 02:56:00,VALID,917.875,VALID,0,VALID,89.5337,VALID,0,VALID,19.4823,VALID,135,VALID,0.874132,
2003-03-10, 02:57:00,VALID,917.852,VALID,0,VALID,89.5527,VALID,0,VALID,19.5079,VALID,134,VALID,0.745313,
2003-03-10, 02:58:00,VALID,917.847,VALID,0,VALID,89.5578,VALID,-0.0169808,VALID,19.5337,VALID,151,VALID,1.02178,
2003-03-10, 02:59:00,VALID,917.838,VALID,0,VALID,89.4103,VALID,0,VALID,19.5665,VALID,144,VALID,0.974107,
2003-03-10, 03:00:00,VALID,917.851,VALID,0,VALID,89.3379,VALID,-0.0169808,VALID,19.5889,VALID,149,VALID,1.05134,
2003-03-10, 03:01:00,VALID,917.846,VALID,0,VALID,89.3404,VALID,-0.0169808,VALID,19.6115,VALID,129,VALID,0.670691,
2003-03-10, 03:02:00,VALID,917.849,VALID,0,VALID,89.437,VALID,0,VALID,19.6244,VALID,125,VALID,0.648026,
2003-03-10, 03:03:00,VALID,917.84,VALID,0,VALID,89.2425,VALID,0,VALID,19.6306,VALID,117,VALID,1.06434,
2003-03-10, 03:04:00,VALID,917.825,VALID,0,VALID,89.1268,VALID,0,VALID,19.6373,VALID,135,VALID,0.941761,
2003-03-10, 03:05:00,VALID,917.805,VALID,0,VALID,89.0174,VALID,0,VALID,19.6796,VALID,114,VALID,0.764757,
2003-03-10, 03:06:00,VALID,917.768,VALID,0,VALID,88.5355,VALID,0,VALID,19.7221,VALID,132,VALID,1.07098,
2003-03-10, 03:07:00,VALID,917.725,VALID,0,VALID,88.0713,VALID,0.0169808,VALID,19.7765,VALID,129,VALID,1.48698,
2003-03-10, 03:08:00,VALID,917.675,VALID,0,VALID,88.0052,VALID,0,VALID,19.8605,VALID,145,VALID,1.60446,
2003-03-10, 03:09:00,VALID,917.634,VALID,0,VALID,88.0395,VALID,0,VALID,19.9182,VALID,148,VALID,1.54732,
2003-03-10, 03:10:00,VALID,917.592,VALID,0,VALID,88.2303,VALID,0,VALID,19.9669,VALID,147,VALID,1.66075,
2003-03-10, 03:11:00,VALID,917.545,VALID,0,VALID,88.538,VALID,0,VALID,19.9637,VALID,151,VALID,1.56476,
2003-03-10, 03:12:00,VALID,917.533,VALID,0,VALID,88.8038,VALID,0,VALID,19.9115,VALID,133,VALID,1.45381,
2003-03-10, 03:13:00,VALID,917.503,VALID,0,VALID,89.2069,VALID,0,VALID,19.8441,VALID,139,VALID,1.07268,
2003-03-10, 03:14:00,VALID,917.502,VALID,0,VALID,89.5667,VALID,0,VALID,19.7857,VALID,135,VALID,0.917752,
2003-03-10, 03:15:00,VALID,917.496,VALID,0,VALID,89.7435,VALID,-0.0169808,VALID,19.7765,VALID,148,VALID,0.67567,
2003-03-10, 03:16:00,VALID,917.464,VALID,0,VALID,89.8274,VALID,0.0339617,VALID,19.7631,VALID,160,VALID,1.09162,
2003-03-10, 03:17:00,VALID,917.445,VALID,0,VALID,90.0919,VALID,0,VALID,19.7661,VALID,144,VALID,1.12835,
2003-03-10, 03:18:00,VALID,917.417,VALID,0,VALID,90.2547,VALID,0.0169808,VALID,19.7663,VALID,144,VALID,1.27344,
2003-03-10, 03:19:00,VALID,917.412,VALID,0,VALID,90.3666,VALID,0,VALID,19.7467,VALID,150,VALID,1.10275,
2003-03-10, 03:20:00,VALID,917.389,VALID,0,VALID,90.5535,VALID,0,VALID,19.741,VALID,148,VALID,1.00576,
2003-03-10, 03:21:00,VALID,917.361,VALID,0,VALID,90.6819,VALID,0,VALID,19.7151,VALID,151,VALID,1.22679,
2003-03-10, 03:22:00,VALID,917.341,VALID,0,VALID,90.8244,VALID,0.0169808,VALID,19.7146,VALID,140,VALID,0.668324,
2003-03-10, 03:23:00,VALID,917.33,VALID,0,VALID,90.9299,VALID,0,VALID,19.7149,VALID,147,VALID,0.337457,
2003-03-10, 03:24:00,VALID,917.32,VALID,0,VALID,90.9235,VALID,0.0169808,VALID,19.7047,VALID,127,VALID,0.510714,
2003-03-10, 03:25:00,VALID,917.318,VALID,0,VALID,90.9032,VALID,0.0169808,VALID,19.7184,VALID,136,VALID,0.545691,
2003-03-10, 03:26:00,VALID,917.3,VALID,0,VALID,90.9795,VALID,0,VALID,19.7082,VALID,125,VALID,0.331027,
2003-03-10, 03:27:00,VALID,917.299,VALID,0,VALID,91.038,VALID,0,VALID,19.7116,VALID,148,VALID,0.427679,
2003-03-10, 03:28:00,VALID,917.289,VALID,0,VALID,91.1829,VALID,0,VALID,19.6987,VALID,151,VALID,0.376657,
2003-03-10, 03:29:00,VALID,917.285,VALID,0,VALID,91.2097,VALID,0,VALID,19.6985,VALID,178,VALID,0.576069,
2003-03-10, 03:30:00,VALID,917.278,VALID,0,VALID,91.0914,VALID,0,VALID,19.7084,VALID,177,VALID,0.674403,
2003-03-10, 03:31:00,VALID,917.254,VALID,0,VALID,90.9057,VALID,-0.0169808,VALID,19.7181,VALID,177,VALID,0.988163,
2003-03-10, 03:32:00,VALID,917.246,VALID,0,VALID,90.8396,VALID,0,VALID,19.7179,VALID,177,VALID,1.01085,
2003-03-10, 03:33:00,VALID,917.253,VALID,0,VALID,90.8638,VALID,0.0169808,VALID,19.737,VALID,165,VALID,0.967188,
2003-03-10, 03:34:00,VALID,917.247,VALID,0,VALID,90.8829,VALID,0,VALID,19.7402,VALID,170,VALID,0.650095,
2003-03-10, 03:35:00,VALID,917.245,VALID,0,VALID,90.9019,VALID,0.0169808,VALID,19.7534,VALID,158,VALID,0.870759,
2003-03-10, 03:36:00,VALID,917.255,VALID,0,VALID,91.0723,VALID,0.0169808,VALID,19.7633,VALID,153,VALID,0.880804,
2003-03-10, 03:37:00,VALID,917.242,VALID,0,VALID,91.1766,VALID,0,VALID,19.7628,VALID,156,VALID,1.04403,
2003-03-10, 03:38:00,VALID,917.245,VALID,0,VALID,91.3432,VALID,0.0169808,VALID,19.7663,VALID,141,VALID,0.992804,